DateTimeUTC,F1_A11,F1_S11,BsB_S11,BsG_S11,BsR_S11,BbsB_S11,BbsG_S11,BbsR_S11,BaB_A11,BaG_A11,BaR_A11,Tu_S11,T_S11,Uu_S11,U_S11,P_S11,T1_A11
2021-01-28T19:00:00Z,00000200,21000000,,,,,,,0000.05,0000.28,-000.32,15.7,23.5,,00.0,0632.4,31.0
2021-01-28T19:01:00Z,00000200,21000000,,,,,,,0000.13,-000.48,0000.27,15.7,23.5,,00.0,0632.5,31.0
2021-01-28T19:02:00Z,00000200,21000000,,,,,,,0000.15,0000.40,0000.29,15.7,23.5,,00.0,0632.5,31.0
2021-01-28T19:03:00Z,00000200,61000000,,,,,,,-000.39,-000.44,-000.37,15.7,23.5,,00.0,0632.5,30.9
2021-01-28T19:04:00Z,00000200,41000000,0000.32,0000.41,0000.02,0000.32,0000.10,-000.12,0000.13,0000.12,-000.09,15.8,23.2,,00.0,0633.4,30.9
2021-01-28T19:05:00Z,00000200,01000000,0000.52,-000.09,0000.32,-000.21,-000.01,0000.03,-000.12,-000.43,0000.04,15.8,23.1,,00.0,0633.5,30.9
2021-01-28T19:06:00Z,00000200,01000000,0001.46,0000.11,0000.09,-000.30,0000.11,0000.16,0000.00,0000.04,0000.08,15.8,23.1,,00.0,0633.5,30.9
2021-01-28T19:07:00Z,00000200,01000000,0000.50,0000.20,0000.22,0000.32,-000.05,0000.16,0000.09,0000.59,0000.10,15.8,23.1,,00.0,0633.4,30.9
2021-01-28T19:08:00Z,00000200,01000000,0000.54,0000.41,0000.05,0000.09,-000.01,-000.04,-000.01,-000.31,-000.22,15.8,23.0,,00.0,0633.4,30.9
2021-01-28T19:09:00Z,00000200,01000000,0000.49,0000.13,0000.18,0000.55,-000.04,-000.21,0000.20,0000.44,0000.41,15.8,23.1,,00.0,0633.4,30.9
2021-01-28T19:10:00Z,00000200,01000000,0000.91,0000.09,0000.01,0000.56,-000.20,-000.19,0000.22,0000.14,0000.12,15.9,23.1,,00.0,0633.3,30.9
2021-01-28T19:11:00Z,00000200,01000000,0000.40,-000.15,0000.05,0000.17,-000.09,0000.17,0000.54,0000.46,0000.22,15.9,23.1,,00.0,0633.3,30.9
2021-01-28T19:12:00Z,00000200,01000000,0000.50,0000.22,-000.16,-000.08,0000.06,-000.12,0000.07,0000.32,-000.08,16.0,23.1,,00.0,0633.3,31.0
2021-01-28T19:13:00Z,00000200,01000000,0000.20,0000.12,0000.08,0000.33,0000.23,-000.23,0000.61,0000.12,0000.65,16.0,23.1,,00.0,0633.3,31.0
2021-01-28T19:14:00Z,00000200,01000000,0000.17,0000.17,0000.03,-000.37,-000.12,-000.06,0000.07,-000.02,-000.08,15.9,23.1,,00.0,0633.3,30.9
2021-01-28T19:15:00Z,00000200,01000000,0000.95,0000.02,-000.07,0000.67,0000.25,-000.07,0000.09,0000.23,-000.20,15.9,23.1,,00.0,0633.4,30.9
2021-01-28T19:16:00Z,00000200,01000000,-000.11,0000.38,-000.28,0000.11,-000.01,0000.05,-000.05,0000.06,-000.06,15.9,23.1,,00.0,0633.4,30.9
2021-01-28T19:17:00Z,00000200,01000000,0000.08,0000.10,-000.05,-000.23,0000.15,0000.09,-000.06,-000.45,0000.17,15.8,23.1,,00.0,0633.4,30.9
2021-01-28T19:18:00Z,00000200,01000000,0000.42,0000.04,0000.09,0000.14,0000.08,-000.09,-000.13,-000.07,-000.17,15.8,23.0,,00.0,0633.4,30.9
2021-01-28T19:19:00Z,00000200,01000000,0000.50,0000.21,0000.08,0000.55,0000.21,0000.15,0000.27,0000.43,0000.39,15.7,23.0,,00.0,0633.4,30.9
2021-01-28T19:20:00Z,00000200,01000000,-000.19,0000.08,-000.03,0000.05,0000.18,-000.13,-000.42,-000.20,-000.53,15.7,23.0,,00.0,0633.4,30.9
2021-01-28T19:21:00Z,00000200,01000000,0000.33,0000.09,-000.04,-000.01,-000.20,-000.10,0000.19,-000.05,0000.45,15.6,22.9,,00.0,0633.4,30.9
2021-01-28T19:22:00Z,00000200,01000000,0000.39,0000.13,-000.04,0000.04,0000.28,-000.04,0000.02,-000.22,0000.37,15.6,22.9,,00.0,0633.4,30.9
2021-01-28T19:23:00Z,00000200,01000000,0000.47,0000.33,0000.04,0000.15,-000.01,-000.03,0000.02,0000.21,-000.75,15.6,22.9,,00.0,0633.4,30.9
2021-01-28T19:24:00Z,00000200,01000000,0000.15,0000.54,-000.09,0000.03,0000.06,0000.14,0000.14,0000.38,0000.37,15.7,22.9,,00.0,0633.3,30.9
2021-01-28T19:25:00Z,00000200,01000000,0000.04,0000.09,0000.28,0000.03,0000.16,0000.05,-000.03,-000.03,0000.29,15.7,22.9,,00.0,0633.3,30.9
2021-01-28T19:26:00Z,00000200,01000000,0000.13,-000.18,-000.11,-000.11,0000.20,-000.03,0000.51,0000.42,0000.03,15.8,23.0,,00.0,0633.3,30.9
2021-01-28T19:27:00Z,00000200,01000000,0000.38,0000.12,-000.01,0000.43,0000.02,0000.05,-000.31,0000.05,0000.16,15.8,23.0,,00.0,0633.3,30.9
2021-01-28T19:28:00Z,00000200,01000000,0000.69,0000.05,0000.01,0000.20,0000.07,-000.07,0000.05,-000.05,-000.42,15.8,23.0,,00.0,0633.4,30.9
2021-01-28T19:29:00Z,00000200,01000000,0000.21,0000.01,0000.07,-000.14,-000.04,-000.21,-000.53,-000.37,0000.16,15.8,23.0,,00.0,0633.4,30.9
2021-01-28T19:30:00Z,00000200,01000000,-000.08,0000.09,0000.06,0000.21,-000.05,0000.17,0000.37,-000.31,-000.26,15.7,23.0,,00.0,0633.4,30.9
2021-01-28T19:31:00Z,00000200,01000000,0000.05,0000.16,-000.00,0000.21,0000.03,-000.17,-000.47,-000.43,0000.14,15.7,22.9,,00.0,0633.5,30.9
2021-01-28T19:32:00Z,00000200,01000000,-000.10,0000.25,0000.14,-000.29,0000.01,0000.07,-000.13,-000.13,-000.64,15.6,22.9,,00.0,0633.5,30.9
2021-01-28T19:33:00Z,00000200,01000000,-000.38,-000.08,-000.11,0000.17,0000.30,-000.05,-000.24,-000.23,-000.12,15.5,22.8,,00.0,0633.5,30.9
2021-01-28T19:34:00Z,00000200,01000000,0000.08,-000.02,0000.07,0000.47,0000.22,-000.21,-000.18,0000.08,0000.05,15.4,22.8,,00.0,0633.5,30.9
2021-01-28T19:35:00Z,00000200,01000000,0000.17,0000.26,-000.01,0000.78,-000.16,-000.17,-000.07,0000.10,0000.14,15.4,22.8,,00.0,0633.5,30.8
2021-01-28T19:36:00Z,00000200,01000000,0000.95,0000.09,0000.26,-000.17,0000.08,-000.05,-000.15,-000.44,-000.48,15.3,22.7,,00.0,0633.5,30.8
2021-01-28T19:37:00Z,00000200,01000000,0000.81,0000.34,0000.15,0000.59,0000.17,0000.23,0000.24,0000.28,0000.41,15.4,22.7,,00.0,0633.5,30.8
2021-01-28T19:38:00Z,00000200,01000000,0000.36,-000.07,-000.02,-000.03,0000.13,0000.01,0000.26,0000.11,0000.23,15.4,22.7,,00.0,0633.5,30.8
2021-01-28T19:39:00Z,00000200,01000000,0000.53,0000.22,0000.05,0000.18,0000.11,0000.14,-000.10,-000.04,0000.08,15.5,22.7,,00.0,0633.5,30.9
2021-01-28T19:40:00Z,00000200,01000000,0000.38,-000.06,0000.07,0000.24,0000.10,-000.08,0000.36,0000.09,0000.06,15.6,22.7,,00.0,0633.6,30.9
2021-01-28T19:41:00Z,00000200,01000000,0000.52,0000.21,-000.14,-000.29,-000.06,-000.06,-000.10,0000.01,0000.15,15.6,22.8,,00.0,0633.6,30.9
2021-01-28T19:42:00Z,00000200,01000000,0000.70,0000.16,-000.09,0000.50,-000.23,0000.09,-000.28,-000.02,-000.26,15.7,22.8,,00.0,0633.6,30.9
2021-01-28T19:43:00Z,00000200,01000000,0000.51,0000.08,-000.19,0000.21,0000.21,0000.22,0000.24,0000.09,0000.25,15.8,22.8,,00.0,0633.6,30.9
2021-01-28T19:44:00Z,00000200,01000000,0000.06,0000.19,0000.16,0000.01,-000.09,0000.15,-000.31,-000.26,-000.43,15.8,22.8,,00.0,0633.6,30.9
2021-01-28T19:45:00Z,00000200,01000000,0000.33,-000.11,-000.02,0000.38,0000.15,-000.02,0000.12,0000.08,-000.08,15.8,22.9,,00.0,0633.6,30.9
2021-01-28T19:46:00Z,00000200,01000000,0000.34,0000.07,0000.02,0000.33,-000.05,0000.11,-000.13,-000.30,-000.20,15.8,22.8,,00.0,0633.6,30.9
2021-01-28T19:47:00Z,00000200,01000000,0000.26,0000.09,0000.12,-000.08,-000.08,0000.02,0000.10,0000.16,0000.09,15.7,22.8,,00.0,0633.6,30.9
2021-01-28T19:48:00Z,00000200,01000000,0000.55,0000.30,-000.12,0000.46,0000.29,-000.04,-000.30,0000.03,0000.08,15.6,22.8,,00.0,0633.6,30.9
2021-01-28T19:49:00Z,00000200,01000000,0000.33,0000.32,0000.06,-000.35,0000.08,-000.08,0000.25,0000.12,0000.13,15.5,22.7,,00.0,0633.6,30.9
2021-01-28T19:50:00Z,00000200,01000000,0000.03,0000.31,-000.09,0000.87,-000.08,-000.11,0000.07,0000.00,0000.26,15.5,22.7,,00.0,0633.6,30.8
2021-01-28T19:51:00Z,00000200,01000000,0000.48,0000.15,0000.13,0000.45,-000.01,0000.25,-000.01,-000.59,-000.26,15.4,22.6,,00.0,0633.5,30.8
2021-01-28T19:52:00Z,00000200,01000000,-000.15,0000.17,0000.16,-000.24,-000.11,-000.01,0000.62,0001.06,0000.61,15.4,22.6,,00.0,0633.5,30.8
2021-01-28T19:53:00Z,00000200,01000000,0000.57,0000.09,-000.12,0000.10,-000.05,-000.11,-000.06,0000.32,0000.21,15.4,22.6,,00.0,0633.5,30.8
2021-01-28T19:54:00Z,00000200,01000000,0000.74,0000.23,-000.10,0000.60,0000.14,-000.05,0000.56,0000.17,0000.07,15.5,22.6,,00.0,0633.5,30.8
2021-01-28T19:55:00Z,00000200,01000000,0000.31,0000.11,0000.11,-000.27,-000.14,0000.13,-000.34,-000.32,-000.21,15.6,22.7,,00.0,0633.4,30.9
2021-01-28T19:56:00Z,00000200,01000000,0000.21,0000.12,0000.24,0000.06,-000.19,0000.14,0000.20,0000.58,0000.41,15.6,22.7,,00.0,0633.4,30.9
2021-01-28T19:57:00Z,00000200,41000000,,,,,,,0001.40,0001.06,0000.72,15.7,22.7,,00.0,0633.4,30.9
2021-01-28T19:58:00Z,00000200,61000000,,,,,,,-000.18,-000.36,-000.28,15.4,22.9,,00.0,0632.6,30.9
2021-01-28T19:59:00Z,00000200,21000000,,,,,,,-000.45,-000.38,-000.13,15.4,23.0,,00.0,0632.6,30.9
